Regional Weather Roundup
Issued by NWS

Home | Current Version | Previous Version | Graphics & Text | Print | Product List | Glossary On
Versions: 1 2 3 4 5 6 7 8 9 10 11 12 13 14 15 16 17 18 19 20 21 22 23 24 25 26 27 28 29 30 31 32 33 34 35 36 37 38 39 40 41 42 43 44 45 46 47 48 49 50
000
ASUS43 KLMK 180910
RWRKY
KENTUCKY REGIONAL WEATHER ROUNDUP
NATIONAL WEATHER SERVICE LOUISVILLE KY
400 AM EST THU DEC 18 2014

NOTE "FAIR" INDICATES FEW OR NO CLOUDS BELOW 12,000 FEET
WITH NO SIGNIFICANT WEATHER AND/OR OBSTRUCTIONS TO VISIBILITY.

KYZ001>023-026-027-061>063-070>075-181000-
WESTERN AND SOUTH CENTRAL KENTUCKY

CITY           SKY/WX    TMP DP  RH WIND       PRES   REMARKS
PADUCAH        LGT RAIN  33  30  88 NE5       30.27S WCI  29
HENDERSON      CLOUDY    30  25  80 NE6       30.28F WCI  24
OWENSBORO      CLOUDY    30  25  82 MISG      30.29F
HOPKINSVILLE   FRZ RAIN  32  29  89 E6        30.25F WCI  26
BOWLING GREEN  MIX PCPN  31  25  78 NE5       30.29F WCI  26
GLASGOW        CLOUDY    29  25  84 CALM      30.27F
$$

KYZ024-025-028>034-038-045-046-053-181000-
NORTH CENTRAL KENTUCKY

CITY           SKY/WX    TMP DP  RH WIND       PRES   REMARKS
LOUISVILLE/SDF CLOUDY    30  22  72 N6        30.29F WCI  24
LOUISVILLE/LOU CLOUDY    29  21  72 N5        30.30S WCI  24
FORT KNOX      CLOUDY    29  24  82 NW1       30.26S
$$

KYZ035>037-039>044-047>052-055>060-089>105-181000-
NORTHEAST KENTUCKY

CITY           SKY/WX    TMP DP  RH WIND       PRES   REMARKS
LEXINGTON      CLOUDY    28  23  81 N6        30.25F WCI  22
COVINGTON      CLOUDY    26  18  71 N5        30.27F WCI  20
FRANKFORT      CLOUDY    28  21  75 N5        30.26S WCI  23
$$

KYZ054-064>069-076>088-106>120-181000-
SOUTHEAST KENTUCKY

CITY           SKY/WX    TMP DP  RH WIND       PRES   REMARKS
JACKSON        CLOUDY    29  23  78 CALM      30.22F
LONDON         PTCLDY    26  22  84 CALM      30.24S
SOMERSET       CLOUDY    23  23 100 CALM      30.27F FOG
MIDDLESBORO    MOCLDY    26  25  96 CALM      30.24S
MONTICELLO     MOSUNNY   24  23  96 CALM      30.28S
$$




USA.gov is the U.S. government's official web portal to all federal, state and local government web resources and services.